Theta_e
283 283 284 284 285 285 285 285 285 284 284 283 283 283 284 284 285 284 285 285 287 287 286 285 286 286 286 286 286 285 285 285 285 284 285 285 286 286 287 286 286 287 287 287 287 288 288 287 287 287 287 286 287 286 287 286 286 286 286 286 286 286
283 283 283 283 285 285 286 285 285 284 284 283 284 284 284 284 284 284 284 285 285 285 284 284 285 285 285 285 285 284 284 285 285 285 285 285 285 285 285 285 285 286 286 286 286 286 287 287 287 286 286 287 287 287 287 287 285 286 286 286 285 286
284 284 284 285 285 285 286 285 285 285 286 285 284 284 284 284 284 285 285 285 284 283 283 283 283 283 284 283 284 284 284 284 284 284 284 285 285 285 285 285 285 285 285 285 285 286 286 286 286 286 285 285 286 286 286 286 285 285 285 285 285 285
284 284 285 285 285 286 285 286 285 285 285 285 285 285 284 283 284 284 284 284 284 283 283 284 284 284 284 283 284 283 283 283 283 284 284 284 284 284 284 284 285 285 285 285 285 284 284 285 286 286 286 286 286 285 287 286 285 285 285 284 284 284
284 285 284 284 285 285 285 285 285 285 285 284 284 283 283 284 284 284 284 282 282 281 281 281 281 283 283 283 283 282 283 283 283 283 282 282 283 284 284 284 284 284 284 284 284 284 284 284 285 286 285 285 285 285 285 286 285 285 285 284 284 284
283 284 284 286 285 284 284 285 284 283 283 283 283 282 281 281 281 282 282 283 282 281 281 280 281 280 280 280 281 282 282 282 282 282 282 282 282 283 283 284 284 284 284 284 284 284 284 284 284 285 285 285 284 284 285 285 285 285 285 285 285 284
280 281 281 281 281 281 281 282 282 282 282 282 282 282 281 280 280 280 280 280 280 280 280 280 280 280 279 279 279 279 280 281 281 281 280 280 280 281 281 282 282 282 282 283 283 284 284 284 284 284 284 284 284 284 284 284 284 284 284 284 285 286
281 281 281 281 281 281 281 281 281 281 282 282 282 282 281 280 280 279 279 279 279 279 279 279 279 279 279 280 280 279 280 281 280 280 280 280 280 280 280 280 281 281 281 281 281 282 283 284 284 284 284 284 284 284 284 284 284 284 284 284 284 284
280 280 280 280 280 280 280 280 280 280 280 280 280 280 280 280 279 279 278 278 278 278 278 278 279 279 279 279 280 279 279 280 280 280 280 280 279 279 279 280 279 280 280 280 281 281 282 282 283 284 284 284 284 284 284 285 285 285 285 285 285 284
279 280 280 280 280 280 280 280 280 281 281 281 280 280 280 281 279 278 278 278 278 278 278 279 279 279 280 280 280 279 278 278 279 279 280 280 280 279 279 279 280 280 279 280 280 280 281 281 282 282 283 283 283 284 284 284 284 284 285 285 285 285
279 279 279 279 280 279 279 280 279 280 280 280 280 280 280 280 279 278 277 277 278 278 278 278 278 278 279 279 279 279 279 279 278 279 279 280 280 281 280 279 279 279 279 279 279 280 280 281 281 282 282 282 282 283 283 284 284 284 284 284 285 285
279 279 279 279 279 279 279 279 279 279 280 280 280 280 280 281 279 278 277 277 278 278 278 278 278 278 278 278 278 278 278 278 278 278 278 279 279 279 279 279 279 278 278 278 278 279 280 281 282 284 286 287 285 283 283 283 283 284 284 284 284 284
279 279 279 279 279 279 280 280 280 280 279 279 279 279 279 280 279 278 277 277 278 278 278 278 278 278 278 278 278 278 278 278 278 277 277 278 278 278 278 278 278 277 277 277 277 278 279 280 281 285 287 288 288 286 284 283 283 283 283 283 283 283
278 278 278 279 279 279 279 279 280 279 279 279 279 279 279 279 278 277 277 277 278 278 278 278 278 278 278 278 277 278 278 278 277 277 277 277 277 277 278 277 277 277 277 277 277 277 277 279 283 285 286 286 287 287 284 283 283 283 283 283 283 284
278 278 279 278 279 280 280 279 279 279 279 279 280 278 278 277 277 278 278 278 278 278 278 278 277 277 277 277 277 277 278 277 277 276 276 276 276 277 277 277 277 276 276 276 275 275 277 277 282 284 285 285 286 286 286 283 282 282 282 283 283 283
278 278 278 279 279 278 279 280 279 279 279 278 277 277 277 277 278 278 278 278 278 278 278 278 277 277 277 277 277 277 277 276 276 276 276 275 275 275 276 276 276 276 275 275 275 275 276 276 280 282 284 284 285 286 286 283 282 282 282 282 282 283
279 278 278 279 279 278 279 278 278 278 277 277 277 277 276 277 277 277 277 277 277 277 277 277 277 277 277 277 277 276 276 276 276 275 275 275 274 274 274 274 274 274 274 274 274 274 274 275 279 281 282 283 285 286 286 283 282 282 282 282 282 282
277 277 277 278 278 278 277 277 277 276 276 276 275 275 274 275 275 275 276 276 276 276 276 276 276 276 275 275 275 275 275 275 275 275 275 274 274 274 274 274 274 273 273 273 273 273 273 274 279 280 281 282 283 284 282 282 281 281 281 281 281 281
276 277 277 277 277 277 276 276 276 275 275 275 274 274 274 274 274 274 274 274 275 275 275 275 274 273 274 274 274 273 273 273 273 273 274 273 273 272 272 272 272 273 272 272 272 271 272 272 276 278 279 280 282 282 280 280 280 280 280 280 280 280
276 276 277 275 275 275 275 275 274 274 274 273 273 272 272 272 271 272 272 272 273 273 272 272 272 272 272 272 271 271 271 271 272 272 272 271 271 271 271 271 271 271 271 271 271 271 271 271 274 277 278 279 280 280 277 278 278 278 279 279 279 280
276 276 275 274 274 274 273 273 272 272 271 271 271 270 269 269 270 270 270 270 271 271 270 270 270 270 270 269 269 269 268 268 268 269 270 269 270 269 270 270 270 270 270 270 270 272 271 270 272 276 277 278 278 277 276 276 276 276 277 278 278 279
275 274 273 273 272 272 272 271 270 269 269 269 269 268 268 268 269 269 269 269 268 268 267 268 268 268 267 265 265 265 265 266 266 267 267 267 268 267 268 268 268 268 268 269 269 269 269 269 269 271 275 276 277 278 275 274 273 273 274 276 277 278
274 273 272 272 271 270 270 269 267 267 267 267 267 266 267 268 268 267 267 266 265 265 265 265 265 264 263 263 263 264 264 264 264 264 264 264 265 265 265 266 266 266 266 267 268 268 268 268 268 269 274 276 276 277 276 273 273 274 275 275 276 277
272 271 270 270 269 269 268 267 265 265 265 265 264 265 266 266 265 265 264 263 263 262 262 262 262 262 262 262 262 261 261 262 262 262 262 263 262 262 262 263 263 264 264 265 266 266 266 268 270 268 272 274 275 276 277 273 272 274 273 274 275 276
269 269 268 268 267 267 267 265 263 264 264 263 264 265 264 264 264 263 262 262 261 261 261 261 260 260 261 260 261 260 260 260 260 261 261 261 261 261 261 261 262 262 262 263 264 265 265 266 267 271 269 273 274 275 276 277 276 278 276 275 274 275
267 267 267 266 265 265 265 263 262 262 262 262 264 264 263 262 262 261 261 260 260 260 260 260 260 260 260 260 260 259 259 259 259 260 260 260 260 260 260 261 261 261 261 261 262 263 265 265 266 269 271 270 273 274 275 276 277 278 276 276 275 276
265 265 264 265 264 263 262 261 261 261 260 262 262 262 261 261 260 260 259 259 259 259 259 259 259 259 259 259 259 258 259 259 259 259 259 260 260 260 259 260 260 260 260 261 261 262 263 264 265 265 268 271 272 273 274 275 276 277 278 275 276 278
262 262 262 262 262 262 260 260 259 259 260 262 262 261 261 260 259 259 258 258 258 258 259 258 258 258 259 259 259 259 259 259 259 259 259 259 259 259 259 259 260 260 260 260 261 261 262 264 264 265 266 267 268 269 271 272 274 275 277 277 276 279
262 261 261 260 261 260 260 259 260 260 261 260 261 261 260 259 258 258 258 258 258 258 258 258 258 258 258 259 259 259 259 259 259 259 259 259 258 258 259 259 259 259 259 259 259 260 261 261 262 263 263 264 265 265 266 267 269 272 274 274 276 278
260 260 259 259 260 260 260 259 259 260 260 260 260 259 259 258 258 258 257 257 257 258 258 257 259 258 258 258 258 258 258 259 259 258 258 258 258 258 258 258 258 258 259 258 259 259 259 260 260 261 262 263 263 264 266 267 269 269 271 273 275 277
258 258 258 258 259 259 259 259 259 259 259 260 259 259 258 258 258 258 257 257 257 257 258 258 257 257 257 257 258 258 258 258 258 258 259 260 260 260 259 259 259 260 260 260 260 260 260 260 261 262 267 266 269 267 267 267 268 269 270 273 276 275
258 257 257 258 259 258 258 258 259 259 260 259 259 258 258 258 257 257 257 257 257 257 257 257 257 257 257 257 257 257 258 261 266 264 262 261 265 269 270 269 264 265 265 264 265 265 264 263 265 270 271 271 272 272 273 274 274 275 273 275 277 275
257 257 257 258 258 258 258 258 258 258 259 259 259 259 258 257 257 257 257 257 257 257 257 257 257 257 257 257 257 257 257 257 259 265 267 267 267 268 269 270 271 271 271 268 265 267 271 272 272 272 272 272 272 273 273 274 274 274 275 276 273 272
256 256 257 258 258 257 257 257 258 258 258 259 259 259 258 258 257 257 257 257 257 257 257 257 257 257 257 257 257 257 257 257 256 258 263 267 267 268 269 269 270 270 270 271 269 267 266 269 271 272 272 272 272 273 273 273 274 274 275 275 276 271
257 257 257 257 256 256 257 257 257 258 258 259 259 258 258 258 257 257 256 256 257 257 257 257 257 257 257 256 257 257 257 257 257 256 257 260 265 267 268 268 269 270 270 270 270 271 270 270 270 271 272 272 272 273 273 273 274 274 275 275 271 270
256 256 256 256 256 256 256 256 257 258 259 259 259 258 258 257 257 257 257 256 257 257 257 257 257 257 257 257 257 257 257 257 258 257 257 257 258 259 262 266 267 268 269 269 269 270 270 270 270 271 272 272 273 273 273 273 271 275 276 274 270 270
256 256 256 257 257 256 256 257 258 259 259 258 258 258 258 257 257 257 257 258 258 257 257 257 257 257 257 258 257 258 258 258 258 258 258 257 257 257 257 258 259 264 268 265 267 269 270 271 271 272 272 273 273 273 274 274 270 269 270 270 270 270
255 255 256 256 256 256 256 257 258 259 258 258 258 257 257 257 257 257 257 257 257 257 257 257 257 258 258 258 258 258 258 259 259 258 258 259 259 258 258 259 260 260 265 268 269 270 270 270 271 271 272 272 273 274 274 269 269 269 269 269 270 271
Wind_Speed
3 3 3 3 2 2 2 3 3 4 5 5 4 4 5 5 6 6 7 7 6 6 7 8 8 8 7 6 6 6 6 7 6 5 5 6 7 8 8 8 7 7 7 6 6 6 6 5 5 5 5 5 5 5 6 5 5 7 7 7 6 7
1 2 3 4 4 3 3 3 3 2 2 2 3 4 5 7 8 7 7 6 6 6 6 6 6 8 8 9 8 9 8 8 8 8 8 8 6 5 6 7 7 8 8 7 7 6 6 5 5 5 5 5 5 5 6 6 6 7 8 8 7 6
2 3 4 3 4 3 2 3 3 2 1 2 4 5 6 8 7 6 5 5 5 5 5 5 5 6 6 7 7 8 8 9 9 9 8 8 9 9 10 8 7 6 6 6 7 7 7 6 6 5 5 4 5 5 5 6 6 7 8 7 8 7
5 5 5 4 4 3 2 3 2 2 2 3 4 5 5 5 5 5 6 5 4 5 3 3 3 3 3 4 4 5 5 6 6 7 9 10 10 8 9 8 8 8 9 8 7 6 6 6 7 7 5 6 6 6 5 6 7 8 8 7 8 7
3 3 3 2 2 1 1 1 1 1 2 3 3 4 4 4 4 4 4 4 4 5 4 3 3 3 4 4 4 4 4 4 4 4 4 5 6 6 7 9 9 9 8 8 8 8 8 6 6 5 5 5 6 7 6 6 7 8 8 8 9 8
3 3 1 0 1 1 1 1 1 1 2 2 2 3 3 4 4 4 4 4 3 4 4 4 4 3 3 3 3 3 4 4 4 4 4 5 6 7 7 6 6 7 8 9 10 9 9 9 8 7 6 6 6 6 7 7 7 7 8 8 9 8
2 2 2 2 3 3 3 3 2 2 2 3 2 2 1 3 2 4 4 5 4 4 4 3 3 4 4 4 3 3 4 4 4 3 3 4 4 5 7 8 7 6 6 7 8 9 9 9 9 9 9 7 6 7 7 7 7 8 8 9 9 9
0 0 1 1 1 1 2 3 2 2 1 1 1 1 1 3 2 4 4 5 5 6 6 5 5 5 5 5 5 5 5 5 5 5 5 5 6 5 5 6 7 6 8 7 7 7 8 8 8 8 8 9 8 7 7 7 7 8 8 8 8 8
3 2 2 2 2 2 2 3 4 4 4 4 3 2 1 2 1 3 3 4 4 5 5 5 5 6 6 6 5 5 5 5 6 6 6 5 4 5 6 6 7 6 6 8 8 8 9 8 7 8 8 8 8 8 8 8 8 8 8 7 8 8
2 2 2 1 2 2 3 3 3 3 3 3 4 4 4 4 4 5 5 5 5 5 6 6 6 7 8 8 7 6 5 5 5 5 6 6 6 5 5 6 7 7 6 7 7 8 8 8 8 8 8 8 8 8 8 8 8 8 8 8 9 9
4 4 3 3 3 3 4 4 4 4 4 3 3 3 3 2 1 3 4 5 5 6 5 5 5 5 6 7 7 9 9 8 7 6 6 6 7 7 7 6 6 8 8 7 8 8 7 8 8 7 8 9 9 8 8 9 9 9 9 9 9 9
4 4 4 4 5 5 5 5 5 5 5 5 4 4 4 1 2 2 4 5 6 6 6 6 6 6 7 7 8 8 8 9 9 9 8 8 7 7 7 7 8 7 8 9 9 8 8 8 7 10 16 15 10 9 9 9 9 9 10 10 10 10
4 4 5 5 5 6 6 5 5 5 4 4 4 4 4 2 1 3 4 5 5 6 6 6 7 7 8 9 8 8 8 9 9 9 9 10 9 9 8 8 8 8 8 9 10 10 9 9 9 14 15 17 19 13 9 9 10 9 10 10 11 11
5 5 5 5 5 5 5 5 5 4 4 4 4 4 2 2 3 4 5 6 6 7 7 7 8 8 10 8 9 9 9 9 9 9 9 10 11 10 9 10 10 9 9 9 9 10 11 11 11 19 19 20 21 18 12 9 9 10 10 10 11 11
5 6 6 5 5 6 6 5 3 3 4 4 4 3 4 4 4 6 7 8 8 9 9 8 8 9 9 9 9 9 9 10 10 10 10 11 9 9 11 13 13 12 11 10 11 12 11 11 14 20 21 22 22 22 18 10 10 11 11 11 11 11
5 4 5 5 3 4 4 5 4 4 4 4 5 5 5 7 9 9 10 10 10 10 10 10 9 10 10 10 9 9 9 10 11 10 9 8 8 10 11 12 13 13 14 13 12 12 13 13 15 22 22 22 24 24 20 11 12 12 11 12 12 12
5 6 7 8 5 5 6 6 5 5 6 5 6 6 7 7 8 9 10 11 11 10 9 10 9 11 11 11 10 10 11 10 10 10 9 8 9 10 11 11 13 13 14 14 14 14 15 14 22 23 24 24 24 24 20 12 12 11 11 12 12 13
4 4 3 3 5 5 4 4 5 5 5 5 5 5 5 5 7 9 9 10 10 10 10 10 11 11 11 12 12 12 12 11 11 11 10 9 9 10 10 12 12 14 15 15 14 14 17 17 27 27 25 25 25 26 15 12 12 12 12 13 13 13
4 3 2 3 4 4 4 5 6 6 6 6 5 5 6 6 8 9 10 10 11 11 11 11 12 13 14 13 13 12 12 12 13 12 10 11 12 13 13 14 13 13 14 15 16 16 17 17 23 29 29 26 27 20 12 12 12 13 14 14 14 13
3 4 4 5 5 5 6 6 6 6 6 6 7 7 8 8 10 10 10 11 10 11 11 11 12 13 14 13 13 13 13 13 12 12 11 12 14 15 15 13 14 14 14 15 17 16 16 18 23 31 31 32 31 24 16 14 14 14 14 14 15 13
4 4 5 5 5 6 7 7 7 7 7 7 8 8 9 10 10 10 11 12 11 10 10 11 12 13 13 13 13 12 14 15 14 14 14 14 14 15 15 15 14 15 14 14 16 20 21 19 23 31 32 34 32 25 15 13 13 15 15 15 16 14
5 6 6 6 6 7 8 6 6 6 8 9 8 8 9 10 10 11 11 11 11 11 11 11 12 12 12 14 15 15 15 14 14 14 14 14 13 15 15 15 15 17 17 16 16 17 18 19 20 23 34 33 34 33 21 15 16 18 19 18 17 16
5 5 5 5 7 7 6 6 8 9 8 8 8 8 9 10 10 11 11 11 11 11 11 11 10 13 14 12 13 14 15 13 13 15 15 16 15 15 16 17 17 17 18 17 17 17 19 17 19 22 32 33 35 37 31 18 18 18 18 17 18 16
5 5 5 5 7 6 5 7 9 9 8 8 9 8 9 10 10 10 10 11 11 11 11 11 11 11 12 13 13 14 15 13 13 14 14 13 14 16 18 17 16 16 18 17 17 17 19 19 27 22 30 36 36 37 39 25 21 22 19 20 19 18
4 4 4 5 5 6 6 7 8 8 8 9 10 9 10 10 10 11 11 12 13 12 12 12 12 13 11 12 12 13 15 14 13 14 13 14 15 15 17 16 15 15 16 15 15 15 16 16 17 28 26 32 35 36 36 38 31 34 25 20 20 20
3 4 4 5 4 5 5 5 8 8 9 11 9 9 9 10 10 11 12 12 13 13 13 12 12 12 11 12 13 13 13 14 13 13 11 12 13 13 14 13 12 14 15 16 16 13 12 12 13 20 29 27 33 34 36 36 36 36 24 21 19 19
4 6 6 5 5 4 4 4 6 9 10 10 7 9 10 11 11 12 13 14 13 13 13 13 12 12 12 11 11 13 12 13 12 12 11 11 12 12 13 13 11 13 14 14 15 14 12 11 12 13 19 29 31 34 34 35 36 35 35 25 21 21
4 5 8 7 4 5 4 4 4 9 11 9 9 9 9 10 12 13 14 13 13 13 14 15 13 12 12 13 11 11 11 12 12 11 12 11 12 12 13 13 13 13 13 14 14 14 13 12 11 11 13 17 22 25 32 36 36 35 34 32 26 33
6 6 7 10 6 4 4 5 5 7 8 9 10 10 10 10 12 13 13 14 13 13 12 14 12 13 12 11 11 10 10 11 11 12 12 12 13 13 13 14 13 13 14 15 14 13 14 13 13 14 13 13 14 15 19 22 21 28 29 21 17 20
4 6 6 8 7 5 6 6 7 7 8 8 9 9 10 11 11 13 14 14 13 12 12 13 14 15 12 11 11 11 11 11 11 12 12 12 13 13 14 14 14 15 15 15 14 14 14 13 12 11 12 13 13 14 14 15 17 15 13 15 15 15
4 5 6 8 6 7 7 7 7 6 8 9 9 9 10 12 12 12 13 13 12 13 12 11 12 12 12 13 12 11 11 12 12 13 14 14 12 13 14 14 15 15 15 15 15 16 17 15 14 13 16 20 23 21 17 15 15 14 15 19 29 23
4 5 7 7 6 7 7 8 8 7 8 8 8 9 11 12 12 12 12 12 12 12 11 11 11 12 12 12 13 13 12 14 23 20 17 15 21 30 32 27 20 19 17 17 15 13 16 15 15 25 32 32 33 33 35 33 33 31 27 30 36 27
4 5 7 7 5 6 8 9 10 9 9 8 8 9 10 11 11 12 12 12 11 12 13 12 12 12 11 12 12 12 13 13 12 21 29 28 28 29 31 31 34 35 33 25 20 20 33 35 37 36 34 34 33 34 33 32 31 34 34 34 25 19
5 5 6 5 6 8 9 10 10 9 9 9 9 8 9 10 11 13 13 12 12 13 13 11 12 12 12 12 12 12 13 13 14 13 18 25 27 28 30 31 32 33 32 33 30 25 18 26 31 33 32 32 32 31 31 30 31 32 33 32 33 21
4 4 5 6 7 9 9 10 11 9 9 9 8 9 10 11 12 14 13 13 13 12 13 12 11 11 11 12 13 13 12 13 13 15 15 14 21 27 29 30 31 32 31 31 32 33 29 29 30 33 32 31 31 31 29 30 32 31 30 32 22 16
5 6 7 7 9 10 10 10 11 9 9 9 9 10 10 12 12 13 12 12 13 13 12 11 11 11 11 11 12 12 13 13 13 14 15 17 15 14 17 22 28 30 30 31 32 31 31 31 32 32 32 31 30 30 30 29 23 28 30 25 17 14
6 6 7 9 10 9 9 11 11 9 9 9 9 10 11 12 13 12 14 20 16 11 11 11 11 11 11 11 12 12 12 13 13 13 14 14 15 16 16 15 16 21 27 23 23 26 30 30 30 30 28 29 29 29 30 30 17 14 12 13 12 13
6 7 8 8 9 8 10 12 10 9 9 9 9 10 11 12 13 12 11 11 12 11 10 10 11 11 11 12 12 12 13 13 13 13 13 13 14 14 15 15 14 14 19 31 29 29 27 28 28 28 29 28 29 29 29 15 12 13 12 12 12 11
Wind_Direction
15 359 1 333 337 349 352 338 354 1 5 1 8 11 6 5 12 18 20 22 14 8 3 356 357 359 359 358 8 7 11 7 0 0 348 336 337 339 336 333 328 321 314 314 307 302 291 281 272 264 262 250 250 247 247 252 246 246 249 246 237 240
342 308 315 318 320 335 334 331 325 343 338 342 353 5 14 15 18 15 13 7 7 1 3 355 359 355 355 353 360 3 3 359 355 350 354 344 335 340 340 336 335 330 327 320 312 306 300 291 278 267 256 255 246 244 248 249 244 249 249 251 240 237
303 305 296 300 296 293 309 306 301 289 313 348 359 16 10 15 3 10 357 359 349 358 351 350 354 355 350 352 354 3 353 354 351 350 346 341 344 346 343 341 337 332 324 318 317 316 313 307 297 286 273 264 259 252 242 247 243 247 251 246 252 244
227 235 241 242 242 248 237 268 267 309 333 0 9 17 8 18 350 7 342 345 346 345 332 315 316 331 336 349 339 2 343 348 341 339 345 344 335 341 333 330 329 332 334 334 326 318 311 310 308 303 299 283 273 263 248 246 244 248 249 241 248 246
224 231 233 231 220 229 229 251 332 332 356 28 13 31 359 7 337 350 330 326 329 324 318 332 324 336 327 350 323 345 326 324 319 319 329 311 311 318 322 324 326 327 330 328 327 326 324 316 308 300 290 277 264 260 257 248 244 244 246 246 245 245
236 235 242 64 35 40 356 16 31 17 11 33 29 22 1 357 345 347 339 329 324 317 323 318 312 335 319 332 300 331 305 308 300 304 324 315 319 320 313 312 312 321 326 327 324 324 320 319 316 313 305 294 283 272 265 259 253 249 248 247 248 245
30 40 18 15 20 17 7 8 16 13 8 15 6 358 341 349 331 360 343 344 343 333 332 318 321 332 320 316 302 310 314 313 303 291 296 302 305 310 319 320 321 319 318 315 313 312 312 310 312 312 309 302 295 286 278 270 262 256 251 248 247 245
209 82 1 353 4 11 356 352 353 352 351 330 302 303 319 330 2 352 356 343 352 338 341 338 343 338 333 323 318 322 329 324 319 315 320 321 318 318 316 308 311 313 311 306 299 296 296 296 296 295 293 294 293 288 280 273 267 264 262 259 254 250
323 322 332 340 341 351 351 344 348 341 347 337 338 342 359 327 29 349 356 336 339 334 328 334 333 328 325 318 310 318 327 321 318 319 312 305 304 309 313 311 305 304 301 299 301 300 294 289 285 282 278 277 276 275 274 270 268 268 268 263 259 256
272 278 275 309 306 321 326 313 308 307 300 313 314 328 342 339 8 351 348 344 339 335 326 326 327 327 322 319 316 314 309 303 307 307 303 304 304 298 297 298 297 295 297 291 291 288 287 286 286 280 276 272 271 271 270 270 270 272 270 267 262 260
235 244 256 262 264 272 269 266 271 275 276 269 270 279 290 281 4 332 331 331 325 314 309 308 306 300 304 306 311 311 310 307 302 299 296 292 292 292 290 288 288 294 296 294 291 290 284 281 278 276 279 281 278 271 271 273 272 271 273 272 268 263
229 234 238 244 243 248 254 256 258 252 245 257 265 272 270 270 295 320 321 314 302 298 299 298 298 298 296 299 298 294 295 299 302 302 300 295 286 279 282 288 288 285 289 294 292 289 290 283 276 274 274 273 272 276 274 272 270 269 270 271 272 268
244 251 254 246 244 243 242 243 244 246 250 258 263 263 264 251 270 287 283 283 279 284 287 292 290 292 293 289 291 290 291 292 292 294 296 298 297 293 288 281 281 284 285 286 288 288 286 281 279 273 270 273 276 275 273 272 273 267 264 265 266 269
244 248 250 252 249 249 251 253 253 255 259 266 273 265 285 326 303 295 286 280 284 282 285 283 284 285 283 285 284 285 285 284 284 285 288 293 297 298 297 290 283 281 281 281 281 281 280 280 270 274 278 280 282 279 272 270 270 270 266 260 260 260
237 234 242 255 251 246 247 241 255 272 272 302 292 343 0 337 321 310 303 297 293 290 287 285 283 282 281 280 280 281 283 281 278 280 284 285 289 299 298 296 296 292 288 281 279 278 276 275 274 276 278 278 276 276 274 269 269 266 265 262 260 259
292 256 237 247 288 339 356 14 20 354 359 7 8 6 341 338 325 313 303 299 295 293 292 290 289 286 284 284 283 281 279 278 276 277 278 282 290 289 290 292 292 292 292 291 288 286 283 277 272 275 275 276 276 274 270 265 265 263 260 261 259 260
335 355 10 23 26 22 21 8 16 8 358 358 352 340 331 321 306 302 301 298 297 297 296 294 293 294 294 294 292 289 284 282 283 280 279 282 283 287 287 289 290 288 289 290 290 290 288 284 281 280 277 274 272 271 272 266 263 260 259 258 258 256
55 62 37 7 30 12 13 7 2 7 331 333 326 317 314 308 303 298 298 297 299 302 304 305 304 302 302 301 298 295 293 295 293 291 290 286 284 281 283 282 279 280 281 283 285 287 285 285 286 286 284 282 279 276 271 265 260 259 258 257 256 254
79 60 53 36 31 7 6 10 9 351 334 327 319 324 315 311 304 302 301 300 303 307 311 314 313 310 306 303 300 300 301 302 300 298 299 293 289 286 283 280 279 278 277 279 280 280 280 282 284 285 284 283 282 281 279 273 269 263 259 256 255 255
58 36 44 24 10 23 27 14 8 348 330 324 323 322 315 312 305 306 306 305 312 313 316 316 313 308 306 308 306 306 306 306 304 302 304 298 295 289 285 283 280 274 272 273 274 274 277 279 281 282 283 283 281 279 275 271 268 264 262 261 256 252
55 43 39 27 33 25 18 7 357 346 328 322 322 319 314 311 310 314 314 314 315 317 320 318 314 309 310 313 316 318 314 310 306 302 300 294 290 287 288 285 281 278 274 270 271 274 274 275 277 279 281 281 281 280 275 273 272 272 268 266 264 259
46 33 30 37 32 10 7 0 352 336 325 320 321 317 312 311 315 316 314 317 321 322 319 315 313 316 321 318 313 310 304 303 302 299 298 295 292 289 286 284 281 280 279 277 274 273 270 273 273 275 277 279 279 278 277 274 272 266 264 262 261 263
54 42 44 37 18 6 357 356 345 328 323 318 317 310 310 315 318 317 319 319 318 318 317 315 317 316 312 308 304 302 299 300 299 300 298 296 294 292 289 289 289 285 283 280 276 274 272 270 273 275 276 277 277 276 276 272 266 265 264 265 262 257
45 35 26 27 11 1 357 346 334 321 320 319 310 309 318 319 319 320 318 316 314 311 308 307 306 303 299 299 298 296 293 295 295 293 295 293 293 293 291 290 289 286 283 282 280 277 277 275 275 277 278 277 277 276 274 271 267 264 264 266 263 259
28 12 359 4 359 1 350 344 323 316 315 308 307 319 322 320 319 316 314 311 308 306 304 302 301 299 297 293 292 291 292 294 292 289 288 288 288 288 287 286 285 282 283 282 280 279 279 280 280 279 280 280 281 279 278 274 272 270 267 261 260 257
13 344 345 345 356 352 346 333 315 311 307 301 315 322 319 316 314 313 310 308 305 305 304 302 301 297 294 293 293 289 289 289 288 286 285 286 285 286 286 284 285 284 284 285 284 280 276 278 279 283 285 287 288 288 285 283 279 275 270 263 257 257
348 333 327 339 341 338 324 323 309 305 301 304 321 316 316 314 314 312 309 307 306 305 304 301 299 297 295 293 291 291 290 287 287 287 285 283 284 281 281 282 280 279 282 283 284 284 280 273 274 277 285 289 291 292 291 290 287 283 278 272 265 257
352 339 322 322 329 315 314 304 301 299 299 310 313 312 312 312 312 309 306 305 305 304 303 302 301 297 297 294 289 284 283 285 288 286 287 283 280 279 281 283 283 281 282 281 284 284 287 291 289 290 293 298 296 295 296 294 291 285 280 274 266 264
336 326 317 308 314 311 308 302 295 289 300 308 309 311 311 311 308 305 305 305 305 304 303 304 305 302 298 293 291 285 285 285 283 284 284 282 282 281 280 281 280 281 280 278 278 278 280 279 279 281 279 277 281 282 286 287 286 285 287 287 278 267
317 307 305 301 306 311 305 302 298 297 301 303 307 309 309 306 306 305 305 304 305 304 305 302 297 297 297 295 294 294 291 285 282 282 280 281 281 282 280 277 277 277 275 276 275 275 273 270 269 267 269 270 271 271 272 278 286 290 295 293 290 282
302 291 296 295 303 304 302 296 297 300 303 305 308 308 307 305 304 300 299 302 304 300 298 295 296 295 296 295 293 285 283 288 286 280 274 265 260 262 268 271 271 267 266 264 269 274 273 270 267 263 260 263 266 271 273 271 276 283 280 281 287 292
293 301 297 296 302 301 300 301 302 303 301 303 303 305 305 304 303 301 302 303 300 297 297 297 295 296 295 294 293 293 284 273 285 288 288 288 284 285 286 287 287 286 286 285 278 271 280 282 280 283 282 284 287 286 286 284 282 280 281 282 284 288
304 295 293 294 305 302 303 302 302 304 304 302 303 304 301 300 303 303 301 301 297 297 298 298 298 295 293 292 293 291 293 294 283 284 288 287 290 291 291 292 291 292 293 293 294 294 293 294 296 298 298 297 296 295 292 289 286 285 283 284 286 287
294 287 291 303 305 300 298 297 296 298 299 299 299 300 296 300 304 301 299 298 296 298 297 295 295 295 294 294 293 292 294 293 295 290 283 289 293 294 295 295 294 293 294 294 295 296 296 296 297 298 297 296 294 292 291 288 286 283 283 281 280 279
287 293 298 300 297 294 294 294 293 295 295 298 301 300 301 303 301 295 294 294 295 295 295 297 296 294 294 295 295 295 293 294 297 297 301 291 292 295 297 296 295 296 296 296 297 297 296 297 298 298 298 296 293 291 288 286 284 283 280 280 278 272
293 294 297 294 290 291 293 292 292 296 297 302 302 301 300 301 295 290 289 292 292 294 294 294 293 293 292 290 290 290 292 291 292 294 295 302 304 299 292 292 295 297 298 298 298 298 298 297 296 297 297 296 295 294 292 289 285 281 278 272 269 270
290 292 290 291 292 292 292 289 291 297 302 303 301 301 303 301 297 292 289 288 289 287 290 291 291 292 290 292 291 291 291 290 291 291 294 296 299 301 303 306 301 299 300 299 298 298 299 300 301 303 301 300 299 298 297 297 292 282 270 262 252 258
292 292 289 285 285 285 287 288 294 303 303 301 300 304 306 303 297 293 289 291 290 290 289 291 292 291 292 292 290 288 286 288 288 291 290 290 290 292 295 295 295 295 298 301 301 302 302 302 302 301 301 300 299 298 300 299 288 277 259 247 244 240